User: anonymous   Login
Location: Unspecified
(0.0000°N, 0.0000°E)
Time: 18:11:44
(UTC+00:00)
Language:

SWISSCUBE - Orbit

View from above orbital plane
View from above orbital plane
View from above satellite
View from above satellite

Ground track
Ground track

The orbit data is extracted from the following two-line orbital elements,

1 35932U 09051B   17019.83281172  .00000156  00000-0  46365-4 0  9997
2 35932  98.4731 155.8874 0007338 355.8103   4.3031 14.55945131388738
Epoch (UTC): 19 January 2017 19:59:14
Eccentricity: 0.0007338
inclination: 98.4731°
perigee height: 701 km
apogee height: 711 km
right ascension of ascending node: 155.8874°
argument of perigee: 355.8103°
revolutions per day: 14.55945131
mean anomaly at epoch: 4.3031°
orbit number at epoch: 38873

The dashed part of the orbit path shows where the satellite is in the earth's shadow,  

DLR